This is the latest recevied weather packets stored in our database for station/object K8JMX-13. If no packets are shown the sender has not sent any weather packets the latest 10 day(s).
| Time | Temp. | Humidity | Pressure | Rain* | Wind** | Luminosity | Snow |
|---|---|---|---|---|---|---|---|
| 1777817327 | 10° C | 48% | 1017.4 hPa | 0 mm | - | 64 W/m² | - |
| 1777817024 | 10° C | 48% | 1017.4 hPa | 0 mm | - | 83 W/m² | - |
| 1777816720 | 9.44° C | 49% | 1017.4 hPa | 0 mm | - | 48 W/m² | - |
| 1777816418 | 9.44° C | 48% | 1017.4 hPa | 0 mm | - | 79 W/m² | - |
| 1777816116 | 8.89° C | 50% | 1017.5 hPa | 0 mm | - | 80 W/m² | - |
| 1777815813 | 8.89° C | 50% | 1017.4 hPa | 0 mm | - | 47 W/m² | - |
| 1777815510 | 8.89° C | 51% | 1017.5 hPa | 0 mm | - | 43 W/m² | - |
| 1777815207 | 8.33° C | 52% | 1017.6 hPa | 0 mm | - | 43 W/m² | - |
| 1777814904 | 8.33° C | 53% | 1017.6 hPa | 0 mm | - | 59 W/m² | - |
| 1777814600 | 8.33° C | 55% | 1017.7 hPa | 0 mm | - | 43 W/m² | - |
| 1777814298 | 7.78° C | 56% | 1017.6 hPa | 0 mm | - | 43 W/m² | - |
| 1777813994 | 7.22° C | 56% | 1017.6 hPa | 0 mm | - | 177 W/m² | - |
| 1777813691 | 7.22° C | 59% | 1017.8 hPa | 0 mm | - | 115 W/m² | - |
| 1777813389 | 6.67° C | 58% | 1017.6 hPa | 0 mm | - | 41 W/m² | - |
| 1777813086 | 6.67° C | 60% | 1017.8 hPa | 0 mm | - | 51 W/m² | - |
| 1777812784 | 6.11° C | 61% | 1017.7 hPa | 0 mm | - | 39 W/m² | - |
| 1777812480 | 6.11° C | 63% | 1017.7 hPa | 0 mm | - | 39 W/m² | - |
| 1777812178 | 5.56° C | 63% | 1017.9 hPa | 0 mm | - | 43 W/m² | - |
| 1777811876 | 5.56° C | 63% | 1017.9 hPa | 0 mm | - | 36 W/m² | - |
| 1777811574 | 5° C | 65% | 1017.8 hPa | 0 mm | - | 40 W/m² | - |
| 1777811269 | 5° C | 66% | 1017.7 hPa | 0 mm | - | 35 W/m² | - |
| 1777810967 | 4.44° C | 67% | 1017.5 hPa | 0 mm | - | 34 W/m² | - |
| 1777810663 | 4.44° C | 68% | 1017.7 hPa | 0 mm | - | 35 W/m² | - |
| 1777810361 | 4.44° C | 68% | 1017.7 hPa | 0 mm | - | 39 W/m² | - |
| 1777810056 | 3.89° C | 69% | 1017.6 hPa | 0 mm | - | 36 W/m² | - |
* Rain latest hour (hover to see other rain measurements)
** Current wind speed in m/s (hover to see current wind gust speed)